Douglas Bisbee, AZ

8:53 PM MST on March 27, 2017 (GMT -0700)
Bisbee Douglas International

Weather History for KDUG - June, 2013

Change the Weather History Date:

Saturday, June 1, 2013

  Actual Average Record
Temperature  
Mean Temperature 78 °F 74 °F  
Max Temperature 98 °F 93 °F 101 °F (2002)
Min Temperature 57 °F 56 °F 43 °F (1949)
Degree Days  
Heating Degree Days 0 0  
Month to date heating degree days 0 0  
Since 1 June heating degree days 0 0  
Since 1 July heating degree days 2559 2522  
Cooling Degree Days 13 9  
Month to date cooling degree days 13 9  
Year to date cooling degree days 213 210  
Since 1 June cooling degree days 13 9  
Growing Degree Days 27 (Base 50)    
Moisture  
Dew Point 25 °F    
Average Humidity 19    
Maximum Humidity 33    
Minimum Humidity 5    
Precipitation  
Precipitation 0.00 in 0.01 in 0.14 in (1991)
Month to date precipitation 0.00 0.01  
Year to date precipitation 0.87 2.41  
Snow  
Snow 0.00 in - - ()
Month to date snowfall 0.0  
Snow Depth 0.00 in    
Sea Level Pressure  
Sea Level Pressure 29.73 in    
Wind  
Wind Speed 6 mph (NNE)    
Max Wind Speed 18 mph    
Max Gust Speed 23 mph    
Visibility 10 miles    
Events      
T = Trace of Precipitation, MM = Missing Value Source: NWS Daily Summary

Daily Weather History Graph

Daily Weather History Graph

Search for Another Location

Airport or City:

Trip Planner

Search our weather history database for the weather conditions in past years. The results will help you decide how hot, cold, wet, or windy it might be!

Date:

Astronomy

Jun. 01, 2013 Rise Set
Actual Time 5:14 AM MST 7:18 PM MST
Civil Twilight 4:46 AM MST 7:46 PM MST
Nautical Twilight 4:13 AM MST 8:19 PM MST
Astronomical Twilight 3:37 AM MST 8:55 PM MST
Moon 12:48 AM MST (6/1) 1:12 PM MST (6/1)
Length of Visible Light 14h 59m
Length of Day
14h 04m
Last Quarter, 40% of the Moon is Illuminated
Jun 1
Last Quarter
Jun 8
New
Jun 16
First Quarter
Jun 23
Full
Jun 29
Last Quarter

Hourly Weather History & Observations

Time (MST) Temp. Dew Point Humidity Pressure Visibility Wind Dir Wind Speed Gust Speed Precip Events Conditions
12:56 AM 66.9 °F 30.0 °F 25% 29.76 in 10.0 mi NNW 4.6 mph - N/A   Clear
1:56 AM 64.0 °F 30.9 °F 29% 29.75 in 10.0 mi NNW 8.1 mph - N/A   Clear
2:56 AM 63.0 °F 30.9 °F 30% 29.75 in 10.0 mi NNW 10.4 mph - N/A   Clear
3:56 AM 59.0 °F 28.9 °F 32% 29.76 in 10.0 mi North 8.1 mph - N/A   Clear
4:56 AM 57.9 °F 28.9 °F 33% 29.77 in 10.0 mi NE 8.1 mph - N/A   Clear
5:56 AM 63.0 °F 30.0 °F 29% 29.78 in 10.0 mi North 8.1 mph - N/A   Clear
6:56 AM 66.0 °F 30.0 °F 26% 29.79 in 10.0 mi WNW 3.5 mph - N/A   Clear
7:56 AM 75.9 °F 30.9 °F 19% 29.80 in 10.0 mi West 3.5 mph - N/A   Clear
8:56 AM 82.0 °F 30.9 °F 16% 29.79 in 10.0 mi Variable 3.5 mph - N/A   Clear
9:56 AM 87.1 °F 30.9 °F 13% 29.76 in 10.0 mi Calm Calm - N/A   Clear
10:56 AM 91.0 °F 30.0 °F 11% 29.76 in 10.0 mi ESE 5.8 mph - N/A   Clear
11:56 AM 91.9 °F 28.0 °F 10% 29.74 in 10.0 mi Calm Calm - N/A   Clear
12:56 PM 93.9 °F 27.0 °F 9% 29.73 in 10.0 mi Variable 5.8 mph - N/A   Clear
1:56 PM 96.1 °F 24.1 °F 8% 29.72 in 10.0 mi SSW 10.4 mph - N/A   Clear
2:56 PM 96.1 °F 21.0 °F 7% 29.70 in 10.0 mi WSW 9.2 mph - N/A   Clear
3:56 PM 96.1 °F 16.0 °F 5% 29.69 in 10.0 mi WNW 4.6 mph - N/A   Clear
4:56 PM 97.0 °F 19.9 °F 6% 29.68 in 10.0 mi East 4.6 mph - N/A   Clear
5:56 PM 96.1 °F 21.9 °F 7% 29.66 in 10.0 mi East 4.6 mph - N/A   Clear
6:56 PM 93.0 °F 19.9 °F 7% 29.67 in 10.0 mi ESE 5.8 mph - N/A   Clear
7:56 PM 84.0 °F 18.0 °F 9% 29.68 in 10.0 mi ENE 5.8 mph - N/A   Clear
8:56 PM 80.1 °F 16.0 °F 9% 29.69 in 10.0 mi ENE 4.6 mph - N/A   Clear
9:56 PM 81.0 °F 19.0 °F 10% 29.69 in 10.0 mi SSW 5.8 mph - N/A   Clear
10:56 PM 75.9 °F 23.0 °F 14% 29.70 in 10.0 mi Calm Calm - N/A   Clear
11:56 PM 72.0 °F 21.9 °F 15% 29.73 in 10.0 mi East 8.1 mph - N/A   Clear